Location: Newark
(20.0000°S, 47.0000°E)
Time: 16:14:18
(UTC+00:00)

N. Korean satellite - Pass Details

Date: 28 March 2019
Orbit: 457 x 508 km, 97.2° (Epoch: 21 April)

Event Time Altitude Azimuth Distance (km) Brightness Sun altitude
Rises 02:24:46 0° 13° (NNE) 2,579 10.4 -8.6°
Reaches altitude 10° 02:26:49 10° 13° (NNE) 1,708 9.5 -8.1°
Maximum altitude 02:30:30 84° 100° (E) 516 6.7 -7.3°
Drops below altitude 10° 02:34:16 10° 189° (S) 1,738 9.3 -6.4°
Sets 02:36:22 0° 190° (S) 2,631 10.2 -5.9°
